Location: Boulder, CO
(40.0083°N, 105.2472°W)
Time: 17:14:50
(UTC-07:00)

SORCE - Visible Passes

Search period start: 22 February 2017 00:00
Search period end: 04 March 2017 00:00
Orbit: 587 x 617 km, 40.0° (Epoch: 21 February)

Date Brightness Start Highest point End Pass type
(mag) Time Alt. Az. Time Alt. Az. Time Alt. Az.
28 Feb 8.9 05:00:18 10° SSE 05:01:03 10° SE 05:01:49 10° SE visible
01 Mar 8.4 05:08:40 10° S 05:11:45 18° SE 05:14:52 10° ESE visible
02 Mar 7.7 05:18:37 10° SSW 05:22:32 28° SSE 05:26:27 10° E visible
03 Mar 8.7 03:52:29 12° SE 03:52:29 12° SE 03:53:57 10° ESE visible
03 Mar 7.0 05:29:12 11° SW 05:33:24 43° SSE 05:37:42 10° E visible
